Lapse_Rate
8.5 8.8 8.9 9.0 9.0 9.1 9.1 8.5 7.8 7.3 7.2 7.2 7.5 7.7 7.0 6.5 6.9 7.0 8.4 7.1 7.4 7.1 7.1 6.9 7.7 7.9 8.4 8.0 9.4 9.3 9.0 8.9 9.3 9.0 8.9 9.1 9.3 9.4 9.2 9.4 9.6 9.4 8.4
8.3 8.5 8.7 8.9 8.9 9.0 9.1 9.2 8.7 8.8 7.9 7.7 8.2 8.9 9.0 8.5 7.8 7.6 7.7 8.0 7.4 6.7 6.8 6.9 6.5 7.8 7.9 8.5 8.9 9.2 8.6 8.7 8.8 8.6 8.5 7.9 8.6 9.0 9.1 8.8 9.0 8.8 9.1
8.0 8.3 8.5 8.6 8.9 8.8 9.0 9.2 9.3 9.2 9.2 8.8 8.0 8.3 8.7 8.6 8.8 8.7 8.3 7.2 7.2 7.4 6.3 6.7 6.4 6.3 7.7 7.9 8.6 8.8 8.2 7.5 8.2 8.6 8.4 7.8 7.5 7.8 7.9 7.9 8.2 8.1 7.9
8.2 8.4 8.5 8.6 8.7 8.9 9.1 9.3 9.3 9.3 9.3 9.3 8.5 7.9 7.9 8.1 8.4 8.9 8.5 9.0 7.7 7.7 6.3 6.3 6.1 5.9 6.1 7.0 7.8 8.5 8.4 8.0 7.1 7.7 8.5 8.1 8.3 7.6 7.3 8.2 8.3 8.7 8.2
8.2 8.3 8.4 8.6 8.8 9.1 9.0 9.2 9.3 9.3 9.0 9.1 9.0 8.6 8.4 8.7 9.1 9.3 9.3 9.0 9.1 8.4 6.8 5.9 5.3 5.0 5.3 6.3 7.1 7.6 7.7 7.5 7.3 7.2 6.5 7.5 8.0 7.6 7.5 7.1 6.7 8.0 7.9
8.2 8.4 8.5 8.8 8.4 8.5 9.1 9.1 9.1 9.2 9.3 9.0 9.0 8.8 8.9 9.1 9.0 9.0 9.0 9.1 9.3 8.9 8.2 6.4 6.1 5.5 5.4 5.5 6.0 6.3 6.9 6.8 6.9 7.8 8.1 7.5 7.3 7.7 7.6 7.3 7.1 6.5 6.2
8.0 8.1 8.3 7.6 6.6 8.1 8.9 9.0 9.1 8.9 7.6 7.6 7.6 7.8 7.9 8.6 8.9 9.0 9.0 9.2 9.3 9.1 8.3 6.9 5.5 5.6 5.0 5.6 5.5 5.5 5.7 5.4 5.5 5.8 6.2 7.0 7.6 7.0 7.1 7.1 7.8 7.6 7.3
7.7 8.0 7.4 6.8 7.1 8.5 8.8 8.8 8.9 8.8 9.0 9.0 8.1 6.7 6.8 7.4 8.4 9.0 9.2 9.1 9.2 9.5 9.2 8.1 7.1 5.5 5.8 5.5 5.2 4.8 4.5 4.5 4.6 4.8 5.5 5.7 7.0 6.6 6.9 6.9 6.7 7.0 6.1
7.6 8.0 8.0 8.0 6.7 8.0 8.7 8.8 8.8 8.8 9.0 8.5 8.2 7.8 7.9 7.8 7.6 8.4 9.1 9.2 9.4 9.6 9.4 9.1 8.1 7.2 6.4 5.7 5.7 5.5 4.7 4.9 4.6 4.4 4.7 4.8 5.3 5.8 5.5 6.5 6.4 6.6 6.7
7.7 7.7 7.8 7.6 6.8 6.0 7.7 8.9 9.0 8.8 9.0 8.3 8.0 7.4 7.2 7.2 7.4 8.3 8.7 9.0 9.1 9.3 9.3 9.1 8.8 7.9 7.0 6.0 5.6 5.6 5.0 4.6 4.9 4.7 5.3 5.0 5.4 6.2 6.1 5.8 6.7 6.8 6.6
7.1 7.0 7.1 7.1 6.6 6.1 5.5 5.8 8.9 8.9 8.9 9.0 8.5 8.5 8.2 8.1 8.3 8.7 8.6 8.7 8.5 8.5 8.8 9.1 8.8 9.1 8.1 6.7 5.8 5.2 5.6 5.5 5.7 5.3 5.6 5.5 5.6 5.8 6.1 6.4 6.7 7.1 6.7
7.1 7.0 6.4 6.0 5.4 5.5 5.0 5.6 5.4 7.0 8.6 9.0 9.1 9.1 9.1 8.8 8.7 8.4 7.6 7.6 8.3 9.0 9.4 9.5 9.1 9.0 8.4 7.7 6.4 6.4 6.0 5.6 5.5 5.3 5.3 5.9 5.9 6.0 6.1 6.1 6.2 6.6 6.5
7.1 6.7 6.4 6.3 5.9 5.2 4.6 4.7 4.4 4.1 4.7 7.4 8.2 8.9 8.9 9.0 9.1 8.2 7.9 8.0 8.6 9.3 9.5 9.5 9.4 9.1 8.0 7.7 7.0 6.7 5.8 5.4 5.7 5.7 5.6 5.1 5.8 5.7 5.8 6.1 6.1 6.5 6.1
7.1 6.7 6.3 6.5 6.5 6.8 6.7 6.2 4.5 3.8 3.9 5.6 6.5 7.2 7.9 8.4 8.9 9.1 9.0 8.9 9.0 9.0 9.0 9.3 9.4 9.0 8.4 7.8 7.5 7.6 6.9 6.6 6.4 5.8 6.1 5.9 5.8 6.0 6.0 6.2 5.6 6.0 5.8
7.0 6.8 6.8 6.6 6.3 6.9 6.9 5.3 4.1 4.3 5.9 6.1 5.8 6.4 6.6 7.5 7.8 8.5 8.9 8.9 7.9 8.5 9.2 8.5 9.0 8.8 7.9 7.7 7.8 7.3 7.3 6.7 6.4 5.8 5.8 5.3 5.1 3.1 4.4 4.8 4.2 4.1 4.7
7.6 7.8 8.0 7.6 7.3 7.3 7.3 6.0 3.9 3.6 3.4 2.6 2.9 3.5 4.9 5.7 5.2 4.9 6.1 6.7 5.8 7.2 6.8 7.7 8.2 8.2 7.0 4.7 2.1 4.9 7.1 5.8 5.7 5.0 3.6 3.4 2.0 2.2 2.1 2.3 2.1 3.0 4.6
7.7 7.8 8.0 8.2 7.7 7.7 7.8 7.2 5.1 4.4 3.5 3.3 4.2 3.9 4.3 4.9 4.0 4.0 3.7 2.8 2.3 2.1 1.9 2.4 2.0 1.1 1.1 1.6 1.2 1.8 4.3 3.4 2.9 2.8 3.1 2.8 1.4 1.0 1.4 1.5 2.5 2.1 1.6
7.8 8.0 8.2 8.3 8.0 8.3 7.0 6.7 5.4 4.9 4.1 5.0 6.2 4.9 4.1 4.2 3.7 2.5 2.9 3.7 1.9 1.5 1.9 2.1 1.7 1.1 0.8 0.6 0.5 0.3 0.0 -0.4 -0.2 0.2 0.8 0.7 0.7 1.0 1.1 1.5 1.5 0.4 0.2
7.9 8.2 8.3 8.1 6.7 6.4 6.4 6.6 5.7 4.3 2.7 2.9 4.8 6.7 4.9 3.8 2.9 1.3 2.5 2.6 3.0 2.5 2.3 2.9 1.4 0.8 0.7 0.5 0.9 1.0 0.5 0.2 0.2 0.6 0.8 1.4 1.6 1.3 1.1 0.8 0.8 0.9 0.4
6.9 6.5 7.1 6.6 6.0 6.0 6.1 5.9 5.5 5.2 4.2 3.4 3.6 4.0 4.8 4.3 1.5 1.9 3.4 3.1 2.6 3.2 3.9 2.6 2.0 1.8 1.1 1.3 1.7 2.2 2.6 2.2 2.1 1.7 1.7 1.2 1.1 0.9 1.2 1.9 1.5 1.5 1.7
6.2 5.9 6.9 5.7 5.3 5.1 6.7 5.1 4.6 3.9 5.4 5.3 5.0 4.9 4.7 4.6 5.1 5.6 5.1 4.1 3.6 3.2 2.4 2.1 2.3 1.5 1.8 1.7 1.9 2.5 3.1 3.0 2.8 2.3 2.1 1.5 1.4 1.7 2.0 2.5 2.3 2.3 2.3
6.3 5.8 5.8 5.7 5.3 4.7 5.6 5.3 4.2 4.6 5.0 4.2 3.6 3.6 4.6 4.8 5.5 5.1 4.8 4.6 4.0 3.3 3.0 2.5 1.8 1.9 1.7 1.4 1.5 1.5 1.4 2.6 3.1 3.0 3.2 2.7 2.4 3.0 3.3 3.5 3.8 4.0 4.9
6.2 5.4 5.2 5.3 5.2 4.4 4.3 4.7 4.1 4.3 5.2 4.6 3.7 3.2 3.5 3.5 3.6 4.2 4.3 4.4 4.3 3.6 3.2 2.7 2.5 2.9 3.4 3.2 3.1 3.0 3.1 3.4 4.0 4.4 4.7 5.1 4.9 5.1 5.0 4.8 4.9 4.8 3.5
5.6 5.8 5.2 5.4 5.6 5.2 4.6 4.3 4.1 4.1 4.5 4.2 3.5 3.6 3.1 3.6 3.6 4.0 4.4 4.6 4.9 4.8 4.5 4.2 4.5 4.7 4.0 3.2 3.1 3.1 3.1 3.3 3.9 4.1 4.8 4.6 4.7 4.7 4.7 4.7 4.9 4.7 4.9
5.7 5.4 5.4 5.8 6.1 5.2 4.8 4.4 4.0 4.3 4.5 4.2 3.5 3.2 3.0 3.3 2.9 1.7 2.1 2.8 1.5 2.1 4.0 4.0 3.8 4.2 3.4 2.3 2.4 2.4 2.8 2.9 3.4 4.7 4.1 3.4 2.5 2.2 2.4 2.8 3.2 3.7 4.3
5.7 5.1 5.1 5.9 6.2 5.5 5.3 4.7 4.3 4.4 4.9 5.2 4.6 4.0 4.2 3.7 3.6 3.4 2.5 1.8 2.3 2.6 2.8 3.0 4.1 4.0 3.6 3.6 3.8 3.6 3.7 4.2 4.5 3.8 3.2 3.3 2.9 3.2 3.1 3.0 3.0 3.8 4.7
Wind_Speed
11 13 13 12 12 14 15 15 14 14 11 10 10 10 10 9 9 9 14 17 19 21 17 10 12 10 10 11 12 10 10 8 8 7 6 6 8 8 7 9 9 11 12
17 17 15 14 13 15 16 15 15 15 13 10 9 9 9 10 10 9 10 15 17 18 15 14 12 14 10 13 12 13 9 9 9 8 6 5 7 8 9 8 8 9 11
20 20 19 18 15 14 15 16 15 15 14 14 10 9 9 8 9 10 10 12 16 18 16 15 12 13 13 12 13 13 15 10 10 12 6 4 5 6 8 11 8 8 7
21 20 20 19 17 15 14 15 15 14 15 15 13 16 12 12 10 9 10 9 14 13 17 15 14 14 11 13 12 12 12 10 11 10 11 8 2 4 3 6 8 8 9
21 20 19 19 20 17 14 13 15 15 15 15 16 12 15 10 9 9 13 14 12 15 14 14 13 12 11 15 14 11 13 10 9 9 10 11 6 5 3 3 4 5 6
20 19 19 18 16 16 15 12 14 15 14 15 15 16 15 13 10 11 10 10 10 11 14 16 14 14 13 14 12 13 15 13 12 9 10 10 11 8 7 6 4 5 5
17 17 17 17 17 14 14 12 15 16 16 16 16 16 16 15 15 13 10 10 9 9 12 14 13 11 13 14 14 12 13 13 11 12 8 8 9 7 5 6 8 6 5
17 15 15 16 18 10 11 12 14 15 15 15 15 14 15 10 10 12 10 9 10 9 13 13 15 12 14 13 12 10 10 11 11 13 12 9 9 7 9 7 6 5 4
18 16 15 14 15 16 8 11 13 13 12 13 11 12 13 14 12 14 11 10 10 10 12 12 13 15 14 12 12 10 12 12 13 12 11 9 9 8 8 7 6 8 8
15 14 14 14 13 12 14 8 11 12 12 12 11 11 13 14 13 12 13 13 12 12 12 13 11 14 14 13 13 11 11 12 9 9 11 11 9 10 9 9 8 8 9
15 13 12 11 12 13 11 12 9 11 11 11 12 11 11 12 12 12 12 12 13 13 13 13 14 12 15 16 12 10 11 14 12 11 13 14 14 10 9 9 10 10 10
13 12 14 15 14 12 13 13 11 10 7 11 11 11 10 10 11 12 12 12 13 13 14 14 15 14 14 15 15 14 12 12 13 12 12 14 9 13 13 10 11 11 11
12 12 13 13 13 14 14 13 12 11 10 7 7 8 9 10 11 11 12 11 12 12 12 13 14 13 11 13 14 13 10 9 10 10 11 11 11 13 10 12 11 11 10
12 12 12 12 12 12 14 14 13 12 7 5 4 5 8 10 9 10 9 9 11 11 12 12 14 13 10 10 11 13 12 11 9 10 11 12 13 14 13 13 14 12 10
15 14 14 14 14 15 15 14 13 14 7 6 6 5 7 6 8 7 7 8 8 9 12 12 10 11 8 7 9 9 11 11 10 10 11 12 12 9 8 6 4 4 4
15 15 15 16 15 15 14 14 14 14 14 13 11 10 5 5 7 6 7 7 8 7 5 8 10 11 4 4 7 8 9 9 8 6 3 4 7 7 9 11 10 8 6
13 15 15 14 14 14 14 15 14 13 14 13 13 12 6 6 8 7 9 10 10 9 8 6 8 8 7 9 10 5 3 5 3 2 1 3 6 7 4 7 6 4 4
12 12 12 12 13 14 14 15 15 15 15 14 14 14 12 7 10 12 7 8 10 11 8 9 9 10 9 15 17 17 12 10 9 9 8 6 6 6 5 5 4 5 5
8 9 10 11 12 14 14 12 14 15 15 15 15 14 12 11 11 15 11 9 12 11 9 7 11 12 13 18 16 14 11 10 9 8 8 5 6 10 10 5 5 3 3
5 8 10 10 11 11 12 12 12 13 12 11 11 13 13 13 15 14 8 9 10 7 5 11 13 19 15 23 20 11 7 8 6 7 6 14 11 14 14 7 5 5 4
5 7 8 9 10 10 10 11 12 13 10 9 9 10 11 11 10 7 7 8 9 10 11 12 12 14 13 15 21 18 8 6 6 7 6 7 14 14 14 11 5 3 4
3 4 6 6 6 9 9 9 10 9 9 9 10 10 9 7 6 7 7 8 8 9 9 9 8 8 10 18 19 20 19 13 7 7 5 6 11 11 12 9 13 15 4
4 2 3 5 5 7 7 7 7 8 8 8 8 9 9 9 9 9 8 6 7 7 7 6 6 6 6 6 14 15 14 13 7 4 4 6 7 9 7 11 11 10 5
7 5 4 4 4 3 4 5 6 6 6 6 7 7 8 8 7 6 6 6 6 5 5 5 5 5 6 6 6 5 5 8 5 6 4 9 10 11 9 8 7 5 4
7 6 6 5 5 3 3 2 4 5 4 4 4 5 5 6 6 8 7 6 8 8 5 5 5 5 5 7 9 8 6 6 8 5 5 5 4 5 6 6 6 5 5
8 8 8 8 8 6 6 4 2 2 3 2 1 1 1 2 2 4 5 11 10 11 12 13 8 6 8 8 9 8 8 8 8 4 3 4 5 5 6 5 5 4 8
Wind_Direction
279 293 285 278 261 263 257 251 250 244 241 234 226 224 222 225 224 231 232 214 216 210 208 203 207 207 202 197 203 205 205 209 207 210 208 227 218 222 227 223 234 219 224
290 297 295 287 272 263 256 251 249 244 238 236 235 229 225 223 225 225 226 231 218 212 208 203 200 203 200 203 203 200 199 205 206 209 200 213 222 222 221 226 229 234 224
308 304 299 291 283 268 260 252 249 248 242 238 236 240 238 241 226 224 220 220 224 215 214 207 197 206 201 209 204 200 199 195 199 210 196 200 223 194 206 215 224 227 231
310 305 301 295 284 274 263 254 248 248 245 238 230 225 226 224 225 225 224 221 223 218 212 215 208 198 204 210 209 203 203 198 198 198 219 245 302 215 179 198 215 226 226
310 311 306 301 293 282 262 249 251 246 241 239 231 227 228 230 226 227 232 223 224 223 211 206 208 202 201 207 208 205 201 209 201 200 205 223 224 261 267 190 195 230 227
315 310 309 295 281 276 260 246 244 246 239 232 233 229 230 225 224 226 232 231 222 227 221 215 208 207 202 202 208 204 203 205 209 206 206 209 211 211 224 240 197 211 216
315 308 304 308 298 264 259 239 238 237 228 223 221 224 224 230 226 227 228 233 236 225 221 220 221 211 209 201 201 209 206 207 206 203 205 211 220 216 209 234 232 221 208
316 308 314 309 311 294 257 242 242 234 237 231 224 217 218 221 227 225 222 230 235 239 221 224 221 217 208 204 197 202 209 207 215 213 211 215 222 217 219 216 217 242 232
317 320 323 323 324 325 271 244 243 239 235 230 220 217 214 217 219 223 229 229 236 241 255 222 227 230 220 196 203 203 200 203 209 213 219 225 230 225 218 223 210 217 236
330 332 336 333 330 331 328 258 239 240 227 222 222 217 218 218 219 219 222 225 230 238 248 259 229 228 220 207 208 213 206 206 209 211 211 218 229 231 227 223 222 227 236
335 337 343 345 340 348 340 323 251 239 236 227 222 220 218 215 215 217 224 227 231 229 233 239 251 233 233 217 202 203 209 205 201 206 211 217 225 229 234 229 231 234 233
342 346 345 347 355 1 4 359 356 337 252 231 233 223 220 217 220 223 221 226 232 233 235 230 232 238 240 227 219 209 210 210 208 209 212 222 222 230 234 234 229 231 231
356 356 1 359 357 356 354 355 354 345 323 315 255 233 224 218 220 219 224 225 231 239 232 234 234 223 227 239 226 220 201 210 219 223 220 221 225 233 231 232 239 236 232
8 8 3 2 3 3 1 356 349 331 267 264 318 259 241 229 224 228 227 226 228 230 237 236 229 221 215 215 230 227 223 222 221 234 229 230 228 231 233 236 234 233 233
6 6 3 4 7 9 8 4 1 10 58 57 5 342 334 265 239 225 226 230 233 236 226 241 223 231 222 224 233 224 222 221 218 220 226 233 233 241 242 246 229 243 257
8 10 10 8 10 11 13 18 15 24 37 35 22 6 12 38 53 27 14 15 3 304 294 276 253 256 278 271 217 227 226 208 215 210 164 189 185 194 213 209 208 199 224
7 10 11 11 5 12 14 24 30 29 35 29 20 13 21 70 67 61 65 62 51 37 41 42 72 57 24 80 69 166 142 102 86 109 191 75 28 22 19 29 10 17 1
4 10 8 9 13 14 22 25 26 26 29 28 33 30 34 52 74 62 56 87 70 60 47 51 54 66 45 52 83 79 84 81 70 66 59 60 46 24 35 33 12 29 16
354 360 3 15 19 16 20 28 32 35 26 12 18 33 44 48 63 62 40 62 80 61 43 67 63 64 54 43 51 71 75 76 72 64 55 59 59 37 43 56 43 31 40
358 352 1 14 23 18 23 25 32 36 40 20 19 21 32 51 53 51 35 53 67 85 85 68 58 58 53 42 44 52 70 73 76 72 59 46 43 35 32 30 20 2 353
346 350 8 12 10 10 17 26 23 26 23 44 44 41 39 50 61 69 64 78 82 76 67 65 58 55 48 48 49 45 59 62 56 49 33 33 31 28 22 21 21 323 322
312 352 355 8 12 17 8 27 24 13 18 28 39 44 50 43 53 62 59 61 66 65 68 67 64 55 51 44 45 45 44 32 50 40 28 29 31 30 32 20 11 359 320
242 270 323 330 16 16 6 13 9 11 17 35 39 39 43 47 40 48 50 54 53 60 58 54 54 51 48 49 45 41 41 37 47 40 41 23 32 26 20 19 21 21 8
229 228 248 278 313 346 347 355 350 3 14 29 36 40 50 51 50 54 50 49 51 63 71 73 72 70 60 38 26 32 33 20 29 358 40 38 23 25 16 8 6 7 1
223 223 238 255 263 266 279 305 326 339 351 11 22 35 41 52 67 59 36 62 53 37 50 53 51 44 49 34 28 27 22 8 3 9 37 22 14 10 3 1 358 355 356
223 225 233 243 245 233 239 236 249 289 290 280 333 17 110 104 99 101 84 56 56 53 54 47 47 73 57 43 33 41 33 26 23 57 27 10 7 357 348 350 351 346 347